Regional Weather Roundup
Issued by NWS

Home | Current Version | Previous Version | Text Only | Print | Product List | Glossary Off
Versions: 1 2 3 4 5 6 7 8 9 10 11 12 13 14 15 16 17 18 19 20 21 22 23 24 25 26 27 28 29 30 31 32 33 34 35 36 37 38 39 40 41 42 43 44 45 46 47 48 49 50

000
ASUS43 KFSD 231410
RWRSD

WEATHER ROUNDUP FOR SOUTH DAKOTA
NATIONAL WEATHER SERVICE SIOUX FALLS SD
900 AM CDT SAT SEP 23 2017

NOTE: "FAIR" INDICATES FEW OR NO CLOUDS BELOW 12,000 FEET WITH NO
SIGNIFICANT WEATHER AND/OR OBSTRUCTIONS TO VISIBILITY.


SDZ001>005-009-010-012>017-231500-
NORTHWEST AND NORTH CENTRAL SOUTH DAKOTA

CITY           SKY/WX    TMP DP  RH WIND       PRES   REMARKS
BUFFALO          N/A     44  40  85 NE5       30.03R
FAITH            N/A     45  45 100 N17       30.04F
MOBRIDGE       CLOUDY    51  47  86 N13       30.02S
$$

SDZ012>016-024>037-041>051-057-063-072>074-231500-
SOUTHWEST AND SOUTH CENTRAL SOUTH DAKOTA

CITY           SKY/WX    TMP DP  RH WIND       PRES   REMARKS
RAPID CTY ARPT CLOUDY    43  41  93 N14       30.07R
PIERRE         CLOUDY    50  47  89 N9        30.01F
CUSTER         CLOUDY    39  37  92 NE6       30.05F
ELLSWORTH AFB  CLOUDY    44  44 100 N10       30.07S
PHILIP         CLOUDY    48  45  89 N15       30.05R
PINE RIDGE     CLOUDY    45  43  93 NE16      30.02F
SPEARFISH      LGT RAIN  41  41 100 E8        30.09S
WINNER         LGT RAIN  51  49  92 N6        30.02R
$$

SDZ004>011-016>023-039-040-231500-
NORTHEAST SOUTH DAKOTA

CITY           SKY/WX    TMP DP  RH WIND       PRES   REMARKS
ABERDEEN       LGT RAIN  52  51  97 N13       30.00S
WATERTOWN      LGT RAIN  55  55 100 NE7       29.97F
BROOKINGS      CLOUDY    60  56  86 N5        29.97R
SISSETON         N/A     54  53  97 NW8G24    29.97F
$$

SDZ017-020-022-023-036>040-048>070-231500-
SOUTHEAST SOUTH DAKOTA

CITY           SKY/WX    TMP DP  RH WIND       PRES   REMARKS
SIOUX FALLS    CLOUDY    63  61  93 NE6       29.96R
HURON          CLOUDY    54  53  97 N9        29.97R
CHAMBERLAIN    DRIZZLE   53  53 100 W6        30.02S
MITCHELL       CLOUDY    56  54  93 NW8       29.98R
YANKTON        CLOUDY    58  54  86 NE5       29.96S
$$

ABBREVIATIONS USED IN REMARKS
   TC - TEMPERATURE IN CELSIUS
  WCI - WIND CHILL INDEX
   HX - HEAT INDEX
  VSB - VISIBILITY




USA.gov is the U.S. government's official web portal to all federal, state and local government web resources and services.